• In Czech Republic
  • List of Countries
  • For 7 days
  • Water Temperature
  • Satellite Maps
  • Weather Map
  • Weather Widgets
  • user-avatar
    Login

    Hourly Weather Vanadzor

    Today, 15 December, Friday

    Time Temperature Precipitation Wind Pressure Humidity
    00:00 +1°C° 0 mm 1 mps 634 mmHg 49%
    01:00 +1°C° 0 mm 1 mps 634 mmHg 49%
    02:00 +1°C° 0 mm 1 mps 634 mmHg 49%
    03:00 -2°C° 0 mm 2 mps 633 mmHg 46%
    04:00 -1°C° 0 mm 2 mps 634 mmHg 48%
    05:00 -1°C° 0 mm 2 mps 634 mmHg 50%
    06:00 -1°C° 0 mm 2 mps 634 mmHg 52%
    07:00 -1°C° 0 mm 2 mps 634 mmHg 54%
    08:00 +1°C° 0 mm 2 mps 635 mmHg 55%
    09:00 +2°C° 0 mm 2 mps 635 mmHg 57%
    10:00 +3°C° 0 mm 2 mps 635 mmHg 57%
    11:00 +5°C° 0 mm 1 mps 635 mmHg 57%
    12:00 +6°C° 0 mm 1 mps 635 mmHg 57%
    13:00 +6°C° 0 mm 1 mps 635 mmHg 58%
    14:00 +6°C° 0 mm 1 mps 635 mmHg 58%
    15:00 +5°C° 0 mm 1 mps 635 mmHg 57%
    16:00 +4°C° 0 mm 1 mps 635 mmHg 56%
    17:00 +2°C° 0 mm 2 mps 635 mmHg 55%
    18:00 +1°C° 0 mm 2 mps 635 mmHg 54%
    19:00 +1°C° 0 mm 2 mps 635 mmHg 53%
    20:00 +1°C° 0 mm 2 mps 635 mmHg 53%
    21:00 +1°C° 0 mm 2 mps 636 mmHg 52%
    22:00 +1°C° 0 mm 2 mps 636 mmHg 52%
    23:00 -1°C° 0 mm 2 mps 636 mmHg 53%

    Tomorrow, 16 December, Saturday

    Time Temperature Precipitation Wind Pressure Humidity
    00:00 -1°C° 0 mm 2 mps 636 mmHg 53%
    01:00 -1°C° 0 mm 2 mps 636 mmHg 54%
    02:00 -1°C° 0 mm 2 mps 636 mmHg 55%
    03:00 -1°C° 0 mm 2 mps 636 mmHg 56%
    04:00 -1°C° 0 mm 2 mps 636 mmHg 56%
    05:00 -1°C° 0 mm 2 mps 636 mmHg 56%
    06:00 -1°C° 0 mm 2 mps 637 mmHg 56%
    07:00 -1°C° 0 mm 2 mps 637 mmHg 56%
    08:00 +1°C° 0 mm 2 mps 637 mmHg 55%
    09:00 +2°C° 0 mm 2 mps 637 mmHg 54%
    10:00 +4°C° 0 mm 1 mps 637 mmHg 54%
    11:00 +5°C° 0 mm 1 mps 638 mmHg 53%
    12:00 +6°C° 0 mm 1 mps 638 mmHg 53%
    13:00 +6°C° 0 mm 1 mps 637 mmHg 53%
    14:00 +6°C° 0 mm 1 mps 637 mmHg 54%
    15:00 +5°C° 0 mm 1 mps 637 mmHg 54%
    16:00 +4°C° 0 mm 1 mps 637 mmHg 54%
    17:00 +3°C° 0 mm 1 mps 637 mmHg 55%
    18:00 +2°C° 0 mm 1 mps 637 mmHg 55%
    19:00 +1°C° 0 mm 1 mps 637 mmHg 54%
    20:00 +1°C° 0 mm 1 mps 637 mmHg 52%
    21:00 +1°C° 0 mm 1 mps 637 mmHg 51%
    22:00 +1°C° 0 mm 1 mps 637 mmHg 50%
    23:00 +1°C° 0 mm 1 mps 637 mmHg 50%

    Day after tomorrow, 17 December, Sunday

    Time Temperature Precipitation Wind Pressure Humidity
    00:00 +1°C° 0 mm 1 mps 637 mmHg 49%
    01:00 +1°C° 0 mm 1 mps 637 mmHg 49%
    02:00 +1°C° 0 mm 1 mps 637 mmHg 50%
    03:00 +1°C° 0 mm 1 mps 637 mmHg 50%
    04:00 -1°C° 0 mm 2 mps 637 mmHg 51%
    05:00 -1°C° 0 mm 2 mps 637 mmHg 52%
    06:00 -1°C° 0 mm 2 mps 637 mmHg 52%
    07:00 -1°C° 0 mm 2 mps 637 mmHg 53%
    08:00 +1°C° 0 mm 2 mps 638 mmHg 54%
    09:00 +2°C° 0 mm 2 mps 638 mmHg 54%
    10:00 +3°C° 0 mm 2 mps 638 mmHg 54%
    11:00 +4°C° 0 mm 2 mps 637 mmHg 53%
    12:00 +5°C° 0 mm 2 mps 637 mmHg 52%
    13:00 +5°C° 0 mm 2 mps 637 mmHg 53%
    14:00 +5°C° 0 mm 2 mps 637 mmHg 54%
    15:00 +4°C° 0 mm 2 mps 636 mmHg 54%
    16:00 +3°C° 0 mm 2 mps 636 mmHg 55%
    17:00 +2°C° 0 mm 2 mps 636 mmHg 56%
    18:00 +1°C° 0 mm 2 mps 636 mmHg 57%
    19:00 +1°C° 0 mm 2 mps 636 mmHg 56%
    20:00 -1°C° 0 mm 2 mps 636 mmHg 55%
    21:00 -1°C° 0 mm 2 mps 637 mmHg 55%
    22:00 -1°C° 0 mm 2 mps 637 mmHg 55%
    23:00 -1°C° 0 mm 2 mps 637 mmHg 55%

    18 December, Monday

    Time Temperature Precipitation Wind Pressure Humidity
    00:00 -1°C° 0 mm 2 mps 637 mmHg 55%
    01:00 -1°C° 0 mm 2 mps 637 mmHg 56%
    02:00 -1°C° 0 mm 2 mps 636 mmHg 57%
    03:00 -1°C° 0 mm 2 mps 636 mmHg 57%
    04:00 -1°C° 0 mm 2 mps 636 mmHg 59%
    05:00 -1°C° 0 mm 2 mps 636 mmHg 60%
    06:00 -2°C° 0 mm 2 mps 636 mmHg 61%
    07:00 -1°C° 0 mm 2 mps 636 mmHg 61%
    08:00 +1°C° 0 mm 2 mps 637 mmHg 62%
    09:00 0°C° 0 mm 3 mps 637 mmHg 62%
    10:00 +2°C° 0 mm 3 mps 637 mmHg 62%
    11:00 +3°C° 0 mm 3 mps 637 mmHg 61%
    12:00 +4°C° 0 mm 3 mps 636 mmHg 60%
    13:00 +5°C° 0 mm 2 mps 636 mmHg 61%
    14:00 +5°C° 0 mm 2 mps 636 mmHg 63%
    15:00 +5°C° 0 mm 2 mps 636 mmHg 64%
    16:00 +4°C° 0 mm 2 mps 636 mmHg 67%
    17:00 +3°C° 0 mm 2 mps 636 mmHg 69%
    18:00 +1°C° 0 mm 2 mps 635 mmHg 72%
    19:00 +1°C° 0 mm 2 mps 635 mmHg 72%
    20:00 +1°C° 0 mm 2 mps 636 mmHg 72%
    21:00 0°C° 0 mm 3 mps 636 mmHg 73%
    22:00 0°C° 0 mm 3 mps 636 mmHg 73%
    23:00 0°C° 0 mm 3 mps 635 mmHg 74%

    19 December, Tuesday

    Time Temperature Precipitation Wind Pressure Humidity
    00:00 0°C° 0 mm 3 mps 635 mmHg 74%
    01:00 0°C° 0 mm 3 mps 635 mmHg 74%
    02:00 0°C° 0 mm 3 mps 635 mmHg 74%
    03:00 0°C° 0 mm 3 mps 635 mmHg 75%
    04:00 0°C° 0 mm 3 mps 635 mmHg 75%
    05:00 0°C° 0 mm 3 mps 635 mmHg 75%
    06:00 0°C° 0 mm 3 mps 635 mmHg 75%
    07:00 0°C° 0 mm 3 mps 635 mmHg 74%
    08:00 +1°C° 0 mm 3 mps 636 mmHg 72%
    09:00 +1°C° 0 mm 3 mps 636 mmHg 71%
    10:00 +1°C° 0 mm 4 mps 636 mmHg 68%
    11:00 +3°C° 0 mm 4 mps 636 mmHg 65%
    12:00 +5°C° 0 mm 4 mps 636 mmHg 62%
    13:00 +4°C° 0 mm 4 mps 635 mmHg 63%
    14:00 +4°C° 0 mm 4 mps 635 mmHg 64%
    15:00 +4°C° 0 mm 3 mps 635 mmHg 64%
    16:00 +3°C° 0.1 mm 3 mps 635 mmHg 68%
    17:00 +2°C° 0.1 mm 3 mps 635 mmHg 71%
    18:00 +1°C° 0.1 mm 3 mps 635 mmHg 74%
    19:00 +1°C° 0.1 mm 3 mps 635 mmHg 74%
    20:00 +1°C° 0.1 mm 3 mps 636 mmHg 75%
    21:00 +1°C° 0.1 mm 3 mps 636 mmHg 76%
    22:00 +2°C° 0.1 mm 2 mps 636 mmHg 76%
    23:00 +1°C° 0.1 mm 2 mps 636 mmHg 77%

    20 December, Wednesday

    Time Temperature Precipitation Wind Pressure Humidity
    00:00 +1°C° 0.1 mm 2 mps 636 mmHg 78%
    01:00 +1°C° 0.1 mm 2 mps 636 mmHg 78%
    02:00 +1°C° 0.1 mm 2 mps 636 mmHg 79%
    03:00 +1°C° 0.1 mm 2 mps 636 mmHg 79%
    04:00 +1°C° 0.2 mm 2 mps 636 mmHg 80%
    05:00 +2°C° 0.2 mm 1 mps 636 mmHg 81%
    06:00 +1°C° 0.2 mm 1 mps 636 mmHg 82%
    07:00 +2°C° 0.3 mm 1 mps 637 mmHg 82%
    08:00 +2°C° 0.3 mm 1 mps 637 mmHg 81%
    09:00 +3°C° 0.3 mm 1 mps 638 mmHg 80%
    10:00 +3°C° 0.3 mm 1 mps 638 mmHg 79%
    11:00 +4°C° 0.3 mm 1 mps 638 mmHg 78%
    12:00 +4°C° 0.3 mm 2 mps 638 mmHg 77%
    13:00 +4°C° 0.1 mm 2 mps 637 mmHg 77%
    14:00 +4°C° 0.1 mm 2 mps 637 mmHg 78%
    15:00 +4°C° 0.1 mm 2 mps 637 mmHg 79%
    16:00 +3°C° 0.1 mm 2 mps 637 mmHg 82%
    17:00 +3°C° 0.1 mm 1 mps 637 mmHg 86%
    18:00 +2°C° 0.1 mm 1 mps 637 mmHg 89%
    19:00 +2°C° 0.4 mm 1 mps 637 mmHg 90%
    20:00 +2°C° 0.4 mm 1 mps 637 mmHg 90%
    21:00 +2°C° 0.4 mm 1 mps 637 mmHg 91%
    22:00 +2°C° 0.8 mm 1 mps 637 mmHg 92%
    23:00 +2°C° 0.8 mm 1 mps 637 mmHg 93%
    Show more